www.pogodaiklimat.ru
Время
и дата
04:37 30.12
04:52 30.12
05:21 30.12
05:52 30.12
06:52 30.12
07:52 30.12
08:20 30.12
08:32 30.12
08:52 30.12
09:32 30.12
09:45 30.12
09:52 30.12
10:36 30.12
10:52 30.12
11:52 30.12
12:33 30.12
12:52 30.12
13:52 30.12
14:52 30.12
15:52 30.12
16:52 30.12
17:52 30.12
18:52 30.12
19:52 30.12
20:52 30.12
21:10 30.12
21:52 30.12
22:42 30.12
22:52 30.12
23:52 30.12
00:52 31.12
01:00 31.12
01:52 31.12
02:52 31.12
03:52 31.12
04:52 31.12
05:52 31.12
06:52 31.12
07:52 31.12
08:52 31.12
09:52 31.12
10:52 31.12
11:52 31.12
12:52 31.12
13:52 31.12
14:52 31.12
15:52 31.12
16:52 31.12
Ветер
(напр.,м/с)
Видим. Явления Облачность Т
(С)
Тd
(С)
f
(%)
Тe
(С)
Тes
(С)
Комфортность P
(гПа)
Po
(гПа)
Тmin
(С)
Tmax
(С)
R
(мм)
R24
(мм)
S
(см)
В 1 8 км слабый снег 10/10 660 м -20.6 -23.3 79 -27 -27 944.9
ЮВ 1 14 км 10/10 780 м -19.4 -22.2 78 -27 -27 1009.0 944.9
ЮВ 2 16 км 10/10 330 м -18.9 -22.2 75 -28 -28 943.9
ЮВ 1 16 км 10/10 330 м -18.9 -22.2 75 -25 -25 1008.6 944.6 -20.6 -18.3 0.8
ЮВ 1 16 км 10/10 390 м -18.3 -21.7 75 -26 -26 1007.9 943.9
ЮВ 2 16 км 10/10 330 м -18.3 -21.1 79 -27 -27 1006.9 943.0
ЮВ 1 16 км 10/10 270 м -17.8 -20.6 79 -25 -25 943.3
Ю 1 16 км 10/10 300 м -17.8 -20.6 79 -23 -23 943.3
ЮВ 2 16 км 10/10 300 м -17.8 -20.6 79 -26 -26 1006.8 943.0
ЮВ 2 10 км мгла 10/10 270 м -17.2 -20.0 79 -25 -25 942.7
Ю 2 8 км мгла 10/10 300 м -17.2 -20.0 79 -25 -25 942.7
Ю 1 6 км дымка 10/10 300 м -17.2 -19.4 83 -24 -24 1006.5 942.7
Ю 2 4 км дымка 10/10 330 м -16.7 -18.9 83 -25 -25 943.3
Ю 2 4 км мгла 10/10 360 м -16.1 -18.9 79 -24 -24 1007.4 943.6
ЮВ 1 13 км 10/10 240 м -16.7 -19.4 80 -22 -22 1006.3 942.3 -18.9 -15.6
ЮЗ 1 16 км 5/5 390 м -14.4 -18.3 72 -21 -20 942.3
ЮЗ 1 16 км ясно -13.9 -17.8 72 -20 -18 1005.5 942.0
ЮЗ 1 16 км 10/8 1800 м
[Ac]
-13.3 -17.2 72 -20 -19 1005.7 942.3
штиль 0 16 км ясно -12.8 -16.7 73 -13 -10 1005.5 942.0
З 1 16 км ясно -12.2 -16.1 73 -17 -15 1006.1 942.7
штиль 0 16 км ясно -12.2 -16.1 73 -12 -12 1006.8 943.3
штиль 0 16 км ясно -13.9 -16.7 79 -14 -14 1007.2 943.6 -16.7 -12.2
СЗ 1 16 км ясно -14.4 -17.2 79 -21 -21 1007.7 944.2
С 1 16 км 8/0 3600 м
[Ac]
-13.9 -17.2 76 -20 -20 1008.9 945.2
штиль 0 16 км 10/2 720 м
[Ac]
-15.0 -19.4 69 -15 -15 1010.2 946.5
СЗ 1 16 км 10/8 660 м
[Ac]
-16.1 -20.0 72 -21 -21 946.5
СЗ 2 16 км 10/10 570 м -15.6 -19.4 73 -25 -25 1011.0 947.1
СЗ 3 16 км 5/5 690 м -16.7 -20.6 72 -27 -27 947.8
СЗ 3
{4}
16 км ясно -17.2 -21.1 72 -28 -28 1011.9 947.8
СЗ 3 16 км ясно -20.6 -25.0 68 -32 -32 опасность
обморожения
1013.5 949.0 -20.6 -13.3
СЗ 2 16 км ясно -22.2 -26.1 70 -33 -33 опасность
обморожения
1013.8 949.3
СЗ 2 16 км 2/2 270 м -22.2 -26.1 70 -32 -32 опасность
обморожения
949.7
СЗ 2 16 км ясно -23.3 -27.8 66 -33 -33 опасность
обморожения
1014.6 950.0
СЗ 1 16 км ясно -23.9 -28.3 67 -32 -32 опасность
обморожения
1015.2 950.6
СЗ 2 16 км ясно -24.4 -28.9 66 -36 -36 опасность
обморожения
1016.3 951.6
СЗ 2 16 км ясно -25.0 -29.4 67 -36 -36 опасность
обморожения
1016.7 951.9
СЗ 3 16 км ясно -25.6 -30.0 66 -38 -38 опасность
обморожения
1017.4 952.5 -25.6 -21.1
СЗ 2 16 км ясно -25.6 -30.0 66 -36 -36 опасность
обморожения
1018.3 953.2
СЗ 1 16 км ясно -26.1 -30.6 66 -35 -35 опасность
обморожения
1019.4 954.4
З 1 16 км ясно -26.1 -30.6 66 -35 -35 опасность
обморожения
1020.0 954.8
С 2 16 км ясно -25.0 -30.0 63 -36 -36 опасность
обморожения
1020.7 955.7
СЗ 3 16 км ясно -24.4 -29.4 63 -37 -36 опасность
обморожения
1021.9 956.7
СЗ 3 16 км ясно -23.9 -29.4 60 -36 -35 опасность
обморожения
1022.5 957.0 -26.7 -23.3
СЗ 3 16 км ясно -23.3 -29.4 57 -35 -34 опасность
обморожения
1022.1 956.4
СЗ 3 16 км ясно -23.3 -28.9 60 -35 -34 опасность
обморожения
1022.0 956.4
СЗ 2 16 км ясно -22.8 -28.9 57 -32 -31 опасность
обморожения
1023.0 957.3
СЗ 2 16 км ясно -23.3 -29.4 57 -33 -32 опасность
обморожения
1023.9 957.9
СЗ 3 16 км ясно -24.4 -29.4 63 -37 -36 опасность
обморожения
1024.9 958.9
Местоположение метеостанции Bismarck Municipal Airport: широта 46.7825 долгота -100.7572 высота над уровнем моря 511 м.
В архиве по умолчанию представлена погода в Бисмарке за последние 1-2 суток. Обновление информации о фактической погоде в базе происходит ежечасно! Архивные данные за месяц целиком и за предыдущие месяцы Вы можете получить, выбрав интересующий диапазон дат из раскрывающегося списка и нажав кнопку "Ввод!".
Внимание! Архив погоды МЕТАР в базе сайта по станциям, не включенным в климатический монитор, хранится не более 60 дней. Нет смысла пытаться выбрать более раннюю дату.
*Определитесь, кто Вы:
Внимание! Время в таблицах - местное (без учета летнего времени). Для получения всемирного времени необходимо вычесть поправку, которая равна -6 ч.
Смотрите также архив погоды в соседних городах и на ближайших метеорологических станциях:
Партнеры нашего сайта:      
Пояснения к столбцам:
  • Ветер - указаны скорость ветра в м/с - средняя за 10 мин, порывы в срок и между сроками (в фигурных скобках) и направление, откуда дует ветер: С - северный,
  • СВ - северо-восточный, В - восточный, ЮВ - юго-восточный, Ю - южный, ЮЗ - юго-западный, З - западный, СЗ - северо-западный.
  • Видимость - горизонтальная дальность видимости в метрах или километрах. При видимости от 1 до 10 км при отсутствии осадков обычно наблюдается дымка, при ухудшении видимости до 1 км и менее - туман. В сухую погоду видимость может ухудшаться дымом, пылью или мглою.
  • Явления - указаны атмосферные явления, наблюдавшиеся в срок или в последний час перед сроком; фигурными скобками обозначены явления, наблюдавшиеся между сроками (за 1-3 часа до срока); квадратными скобками обозначены град или гололедные отложения с указанием их диаметра в мм.
  • Облачность - указаны через наклонную черту общая и нижняя облачность в баллах и высота нижней границы облаков в метрах; квадратными скобками обозначены формы облаков: Ci - перистые, Cs - перисто-слоистые, Cc - перисто-кучевые, Ac - высококучевые, As - высокослоистые, Sc - слоисто-кучевые, Ns - слоисто-дождевые, Cu - кучевые, Cb - кучево-дождевые. Подробнее классификацию облаков см. в Атласе облаков (PDF).
  • T - Температура воздуха - температура, измеренная на высоте 2 м над землей.
  • Td - Температура точки росы - температура, при понижении до которой содержащийся в воздухе водяной пар достигнет насыщения.
  • f - Относительная влажность воздуха - влажноcть воздуха, измеренная на высоте 2 м над землей.
  • Te - Эффективная температура - температура, которую ощущает одетый по сезону человек в тени. Характеристика душности погоды. При расчете учитывается влияние влажности воздуха и скорости ветра на теплоощущения человека.
  • Tes - Эффективная температура на солнце - температура, которую ощущает человек, с поправкой на солнечный нагрев. Характеристика знойности погоды. Зависит от высоты солнца над горизонтом, облачности и скорости ветра. Ночью, в пасмурную погоду, а также при ветре 12 м/с и более поправка равна нулю.
  • P - Атмосферное давление - приведенное к уровню моря атмосферное давление.
  • Po - Атмосферное давление - измеренное на уровне метеостанции атмосферное давление.
  • Tmin - Минимальная температура - минимум температуры воздуха на высоте 2 м над землей.
  • Tmax - Максимальная температура - максимум температуры воздуха на высоте 2 м над землей.
  • R - Количество осадков - Количество выпавших осадков за период времени, мм. При наведении курсора мыши на число - период времени, за который выпало указанное количество осадков.
  • R24 - Количество осадков - Количество выпавших осадков за 24 часа, мм.
  • S - Снежный покров - Высота снежного покрова, см. При наведении курсора мыши на число - состояние снежного покрова и степень покрытия местности в баллах.